Location: Chilton Park
(37.7711°N, 100.0276°W)
Time: 14:07:36
(UTC+00:00)

SJ-12 - Pass Details

Date: 08 December 2021
Orbit: 567 x 584 km, 97.7° (Epoch: 19 January)

Event Time Altitude Azimuth Distance (km) Brightness Sun altitude
Rises 11:57:25 0° 6° (N) 2,818 7.4 -20.3°
Reaches altitude 10° 11:59:37 10° 2° (N) 1,913 6.4 -19.9°
Maximum altitude 12:03:40 53° 286° (WNW) 722 4.0 -19.1°
Drops below altitude 10° 12:07:40 10° 209° (SSW) 1,896 6.4 -18.3°
Sets 12:09:51 0° 205° (SSW) 2,790 7.3 -17.9°
